Location: Unspecified
(0.0000°N, 0.0000°E)
Time: 20:50:57
(UTC+00:00)

Vanguard 1 Rocket - All Passes

Search period start: 14 July 2020 00:00
Search period end: 24 July 2020 00:00
Orbit: 653 x 4223 km, 34.3° (Epoch: 13 July)

Date Brightness Start Highest point End Pass type
(mag) Time Alt. Az. Time Alt. Az. Time Alt. Az.
14 Jul - 01:11:19 10° W 01:27:52 24° SW 01:39:23 10° SSE visible
14 Jul - 08:55:36 10° SW 08:59:59 45° SE 09:04:27 10° ENE daylight
14 Jul - 11:22:06 10° WNW 11:25:26 18° NNW 11:29:41 10° NNE daylight
14 Jul - 16:21:44 10° N 16:30:24 16° NNE 16:41:46 10° ENE daylight
14 Jul - 18:46:07 10° NNW 19:05:31 45° NE 19:29:32 10° ESE visible
14 Jul - 21:14:20 10° NW 21:39:44 86° SW 22:02:40 10° SE visible
14 Jul - 23:50:29 10° W 00:13:04 38° SW 00:29:02 10° SSE visible
15 Jul - 02:43:43 10° SW 02:46:42 11° SSW 02:49:25 10° SSW visible
15 Jul - 07:45:25 10° SSW 07:48:59 18° SSE 07:52:06 10° ESE daylight
15 Jul - 10:09:58 10° W 10:13:59 34° NNW 10:18:53 10° NNE daylight
15 Jul - 17:34:50 10° NNW 17:49:56 30° NE 18:10:37 10° E daylight
15 Jul - 20:00:56 10° NW 20:23:58 73° NE 20:48:57 10° ESE visible
15 Jul - 22:32:43 10° WNW 22:57:53 55° SW 23:17:43 10° SE visible
16 Jul - 01:17:21 10° WSW 01:31:36 20° SSW 01:41:59 10° SSE visible
16 Jul - 08:58:34 10° SW 09:03:13 86° SE 09:07:51 10° NE daylight
16 Jul - 11:28:34 10° NNW 11:29:12 10° NNW 11:29:51 10° NNW daylight
16 Jul - 16:24:32 10° N 16:34:35 19° NNE 16:48:18 10° ENE daylight
16 Jul - 18:48:43 10° NW 19:08:23 53° NE 19:33:26 10° ESE visible
16 Jul - 21:17:20 10° WNW 21:42:17 74° SW 22:05:27 10° SE visible
16 Jul - 23:55:16 10° W 00:16:17 31° SW 00:31:39 10° SSE visible
17 Jul - 07:47:36 10° SSW 07:52:25 32° SSE 07:56:22 10° E daylight
17 Jul - 10:14:09 10° WNW 10:17:25 20° NNW 10:21:09 10° NNE daylight
17 Jul - 15:18:04 10° NNE 15:19:27 10° NNE 15:20:55 10° NNE daylight
17 Jul - 17:37:26 10° NNW 17:53:11 36° NE 18:15:29 10° E daylight
17 Jul - 20:03:42 10° NW 20:26:31 84° NE 20:51:59 10° SE visible
17 Jul - 22:36:33 10° WNW 23:00:43 46° SW 23:20:20 10° SSE visible
18 Jul - 01:23:50 10° WSW 01:35:44 16° SSW 01:44:47 10° S night (unlit)
18 Jul - 06:36:53 10° SSW 06:40:55 17° SSE 06:44:07 10° ESE daylight
18 Jul - 09:01:55 10° WSW 09:06:27 49° NW 09:10:52 10° NE daylight
18 Jul - 16:27:08 10° NNW 16:38:22 23° NE 16:54:26 10° ENE daylight
18 Jul - 18:51:22 10° NW 19:11:02 63° NE 19:36:56 10° ESE visible
18 Jul - 21:20:35 10° WNW 21:44:54 63° SW 22:08:06 10° SE visible
19 Jul - 00:00:37 10° W 00:19:52 26° SSW 00:34:20 10° SSE visible
19 Jul - 05:26:31 10° S 05:28:32 11° SSE 05:30:20 10° SSE visible
19 Jul - 07:50:16 10° SW 07:55:47 59° SE 08:00:05 10° ENE daylight
19 Jul - 10:19:43 10° NW 10:20:56 11° NNW 10:22:12 10° NNW daylight
19 Jul - 15:18:51 10° N 15:23:45 12° NNE 15:29:40 10° NE daylight
19 Jul - 17:40:03 10° NNW 17:56:08 44° NE 18:19:48 10° ESE daylight
19 Jul - 20:06:38 10° NW 20:29:04 84° SW 20:54:48 10° SE visible
19 Jul - 22:40:50 10° W 23:03:50 38° SW 23:22:56 10° SSE visible
20 Jul - 01:30:20 10° SW 01:40:13 15° SSW 01:47:59 10° S night (unlit)
20 Jul - 06:38:46 10° SSW 06:44:35 27° SSE 06:48:42 10° E daylight
20 Jul - 09:05:44 10° W 09:09:42 26° NW 09:13:31 10° NNE daylight
20 Jul - 16:29:40 10° NNW 16:41:47 28° NE 16:59:57 10° E daylight
20 Jul - 18:54:07 10° NW 19:13:36 74° NE 19:40:07 10° ESE visible
20 Jul - 21:24:09 10° WNW 21:47:43 54° SW 22:10:40 10° SE visible
21 Jul - 00:06:28 10° WSW 00:23:53 22° SSW 00:37:14 10° SSE visible
21 Jul - 02:58:52 10° SSW 03:00:42 10° S 03:02:23 10° S visible
21 Jul - 05:27:05 10° SSW 05:32:31 17° SSE 05:36:30 10° ESE visible
21 Jul - 07:53:18 10° WSW 07:59:02 76° NW 08:03:24 10° NE daylight
21 Jul - 15:20:45 10° N 15:27:41 15° NNE 15:36:55 10° ENE daylight
21 Jul - 17:42:42 10° NW 17:58:52 53° NE 18:23:37 10° ESE daylight
21 Jul - 20:09:46 10° WNW 20:31:42 72° SW 20:57:26 10° SE visible
21 Jul - 22:45:37 10° W 23:07:19 32° SSW 23:25:36 10° SSE visible
22 Jul - 01:36:14 10° SW 01:44:58 14° SSW 01:51:56 10° SSE visible
22 Jul - 04:14:38 10° SSW 04:19:31 13° S 04:23:21 10° SE visible
22 Jul - 06:41:09 10° SW 06:48:07 45° SSE 06:52:40 10° ENE daylight
22 Jul - 09:10:16 10° WNW 09:12:57 15° NW 09:15:33 10° N daylight
22 Jul - 16:32:13 10° NNW 16:44:51 34° NE 17:04:51 10° E daylight
22 Jul - 18:57:00 10° NW 19:16:10 86° NE 19:43:00 10° SE visible
22 Jul - 21:28:06 10° W 21:50:47 45° SW 22:13:13 10° SE visible
23 Jul - 00:12:39 10° WSW 00:28:18 19° SSW 00:40:27 10° SSE visible
23 Jul - 02:59:53 10° SSW 03:05:22 12° S 03:09:46 10° SSE visible
23 Jul - 05:28:51 10° SSW 05:36:22 26° SSE 05:41:14 10° E visible
23 Jul - 07:56:43 10° WSW 08:02:11 42° NW 08:06:22 10° NNE daylight
23 Jul - 15:22:53 10° N 15:31:16 19° NE 15:43:21 10° ENE daylight
23 Jul - 17:45:26 10° NW 18:01:28 63° NE 18:27:02 10° ESE visible
23 Jul - 20:13:10 10° WNW 20:34:31 61° SW 20:59:58 10° SE visible
23 Jul - 22:50:55 10° WSW 23:11:12 28° SSW 23:28:26 10° SSE visible
